When you browse on this site, cookies collect data to enhance your experience and personalize the content and advertising you see.
Visit our Privacy Policy to learn more. By continuing to use the site, you agree to this use of cookies and data.
  • In Spain
  • List of Countries
  • For 7 days
  • Water Temperature
  • Weather Map
  • Weather Widgets
  • user-avatar
    Login

    Hourly Weather Bandar Seri Begawan

    Today, 24 February, Monday

    Time Temperature Precipitation Wind Pressure Humidity
    00:00 +27°C° 0 mm 4 mps 757 mmHg 86%
    01:00 +27°C° 0 mm 3 mps 756 mmHg 88%
    02:00 +26°C° 0 mm 2 mps 756 mmHg 91%
    03:00 +26°C° 0 mm 2 mps 756 mmHg 92%
    04:00 +26°C° 0 mm 2 mps 756 mmHg 92%
    05:00 +26°C° 0 mm 2 mps 756 mmHg 93%
    06:00 +26°C° 0 mm 2 mps 756 mmHg 90%
    07:00 +27°C° 0 mm 2 mps 756 mmHg 86%
    08:00 +28°C° 0 mm 2 mps 757 mmHg 83%
    09:00 +29°C° 0 mm 2 mps 757 mmHg 77%
    10:00 +30°C° 0 mm 2 mps 757 mmHg 72%
    11:00 +31°C° 0 mm 2 mps 757 mmHg 66%
    12:00 +32°C° 0 mm 2 mps 756 mmHg 63%
    13:00 +33°C° 0 mm 3 mps 755 mmHg 61%
    14:00 +34°C° 0 mm 4 mps 754 mmHg 59%
    15:00 +33°C° 0 mm 4 mps 754 mmHg 62%
    16:00 +32°C° 0 mm 4 mps 754 mmHg 66%
    17:00 +30°C° 0 mm 5 mps 753 mmHg 69%
    18:00 +29°C° 0 mm 4 mps 754 mmHg 75%
    19:00 +29°C° 0 mm 4 mps 754 mmHg 81%
    20:00 +28°C° 0 mm 3 mps 754 mmHg 87%
    21:00 +27°C° 0 mm 3 mps 755 mmHg 89%
    22:00 +27°C° 0 mm 2 mps 755 mmHg 90%
    23:00 +27°C° 0 mm 2 mps 756 mmHg 92%

    Tomorrow, 25 February, Tuesday

    Time Temperature Precipitation Wind Pressure Humidity
    00:00 +27°C° 0 mm 2 mps 755 mmHg 93%
    01:00 +27°C° 0 mm 2 mps 755 mmHg 93%
    02:00 +27°C° 0 mm 2 mps 755 mmHg 94%
    03:00 +26°C° 0 mm 1 mps 754 mmHg 94%
    04:00 +26°C° 0 mm 1 mps 754 mmHg 94%
    05:00 +26°C° 0 mm 1 mps 754 mmHg 95%
    06:00 +27°C° 0 mm 1 mps 755 mmHg 91%
    07:00 +27°C° 0 mm 1 mps 755 mmHg 88%
    08:00 +28°C° 0 mm 1 mps 756 mmHg 84%
    09:00 +30°C° 0 mm 1 mps 756 mmHg 75%
    10:00 +32°C° 0 mm 1 mps 756 mmHg 66%
    11:00 +34°C° 0 mm 1 mps 756 mmHg 57%
    12:00 +35°C° 0 mm 2 mps 755 mmHg 57%
    13:00 +35°C° 0 mm 2 mps 754 mmHg 56%
    14:00 +35°C° 0 mm 3 mps 753 mmHg 56%
    15:00 +34°C° 0 mm 3 mps 753 mmHg 61%
    16:00 +33°C° 0 mm 4 mps 753 mmHg 66%
    17:00 +32°C° 0 mm 4 mps 753 mmHg 71%
    18:00 +30°C° 0 mm 3 mps 753 mmHg 77%
    19:00 +29°C° 0 mm 3 mps 754 mmHg 83%
    20:00 +28°C° 0 mm 2 mps 754 mmHg 89%
    21:00 +28°C° 0 mm 2 mps 755 mmHg 90%
    22:00 +27°C° 0 mm 2 mps 755 mmHg 91%
    23:00 +27°C° 0 mm 2 mps 756 mmHg 93%

    Day after tomorrow, 26 February, Wednesday

    Time Temperature Precipitation Wind Pressure Humidity
    00:00 +27°C° 0 mm 2 mps 755 mmHg 93%
    01:00 +27°C° 0 mm 1 mps 755 mmHg 94%
    02:00 +27°C° 0 mm 1 mps 755 mmHg 95%
    03:00 +27°C° 0.2 mm 1 mps 755 mmHg 95%
    04:00 +26°C° 0.2 mm 1 mps 754 mmHg 95%
    05:00 +26°C° 0.2 mm 1 mps 754 mmHg 95%
    06:00 +27°C° 0.2 mm 1 mps 755 mmHg 93%
    07:00 +27°C° 0.2 mm 2 mps 755 mmHg 90%
    08:00 +28°C° 0.2 mm 2 mps 756 mmHg 87%
    09:00 +30°C° 0.4 mm 1 mps 756 mmHg 79%
    10:00 +32°C° 0.4 mm 1 mps 756 mmHg 71%
    11:00 +32°C° 0.4 mm 0 mps 756 mmHg 64%
    12:00 +34°C° 0.2 mm 1 mps 755 mmHg 62%
    13:00 +35°C° 0.2 mm 2 mps 754 mmHg 59%
    14:00 +35°C° 0.2 mm 3 mps 753 mmHg 57%
    15:00 +34°C° 0.3 mm 4 mps 753 mmHg 65%
    16:00 +33°C° 0.3 mm 4 mps 753 mmHg 73%
    17:00 +30°C° 0.3 mm 4 mps 753 mmHg 81%
    18:00 +29°C° 0.1 mm 3 mps 754 mmHg 84%
    19:00 +28°C° 0.1 mm 3 mps 755 mmHg 88%
    20:00 +28°C° 0.1 mm 3 mps 755 mmHg 91%
    21:00 +28°C° 0.4 mm 3 mps 756 mmHg 91%
    22:00 +28°C° 0.4 mm 3 mps 756 mmHg 91%
    23:00 +27°C° 0.4 mm 4 mps 756 mmHg 90%

    27 February, Thursday

    Time Temperature Precipitation Wind Pressure Humidity
    00:00 +27°C° 0.3 mm 4 mps 756 mmHg 90%
    01:00 +27°C° 0.3 mm 4 mps 755 mmHg 90%
    02:00 +27°C° 0.3 mm 4 mps 755 mmHg 90%
    03:00 +27°C° 0.1 mm 3 mps 755 mmHg 91%
    04:00 +27°C° 0.1 mm 3 mps 754 mmHg 91%
    05:00 +27°C° 0.1 mm 3 mps 754 mmHg 92%
    06:00 +27°C° 0.4 mm 2 mps 755 mmHg 90%
    07:00 +27°C° 0.4 mm 2 mps 755 mmHg 89%
    08:00 +28°C° 0.4 mm 2 mps 756 mmHg 87%
    09:00 +30°C° 0.1 mm 2 mps 756 mmHg 79%
    10:00 +31°C° 0.1 mm 2 mps 756 mmHg 70%
    11:00 +34°C° 0.1 mm 2 mps 756 mmHg 62%
    12:00 +34°C° 0.2 mm 3 mps 755 mmHg 62%
    13:00 +34°C° 0.2 mm 4 mps 754 mmHg 62%
    14:00 +34°C° 0.2 mm 4 mps 753 mmHg 63%
    15:00 +33°C° 0.1 mm 4 mps 753 mmHg 67%
    16:00 +32°C° 0.1 mm 5 mps 753 mmHg 70%
    17:00 +32°C° 0.1 mm 5 mps 753 mmHg 74%
    18:00 +30°C° 0 mm 4 mps 753 mmHg 78%
    19:00 +29°C° 0 mm 4 mps 754 mmHg 83%
    20:00 +28°C° 0 mm 3 mps 754 mmHg 87%
    21:00 +28°C° 0 mm 3 mps 754 mmHg 88%
    22:00 +28°C° 0 mm 3 mps 755 mmHg 90%
    23:00 +28°C° 0 mm 2 mps 755 mmHg 91%

    28 February, Friday

    Time Temperature Precipitation Wind Pressure Humidity
    00:00 +27°C° 0 mm 2 mps 755 mmHg 92%
    01:00 +27°C° 0 mm 2 mps 754 mmHg 93%
    02:00 +27°C° 0 mm 2 mps 754 mmHg 94%
    03:00 +27°C° 0.3 mm 2 mps 754 mmHg 94%
    04:00 +27°C° 0.3 mm 2 mps 754 mmHg 93%
    05:00 +27°C° 0.3 mm 1 mps 754 mmHg 93%
    06:00 +27°C° 1 mm 2 mps 754 mmHg 93%
    07:00 +27°C° 1 mm 2 mps 755 mmHg 92%
    08:00 +28°C° 1 mm 2 mps 755 mmHg 91%
    09:00 +29°C° 1 mm 2 mps 755 mmHg 86%
    10:00 +30°C° 1 mm 1 mps 755 mmHg 81%
    11:00 +31°C° 1 mm 1 mps 755 mmHg 76%
    12:00 +32°C° 0.6 mm 2 mps 754 mmHg 72%
    13:00 +33°C° 0.6 mm 3 mps 753 mmHg 68%
    14:00 +34°C° 0.6 mm 3 mps 752 mmHg 64%
    15:00 +33°C° 0.3 mm 4 mps 752 mmHg 67%
    16:00 +32°C° 0.3 mm 4 mps 752 mmHg 71%
    17:00 +30°C° 0.3 mm 4 mps 752 mmHg 74%
    18:00 +29°C° 0 mm 3 mps 752 mmHg 79%
    19:00 +29°C° 0 mm 3 mps 753 mmHg 83%
    20:00 +28°C° 0 mm 3 mps 753 mmHg 88%
    21:00 +28°C° 0 mm 2 mps 754 mmHg 89%
    22:00 +28°C° 0 mm 2 mps 754 mmHg 90%
    23:00 +27°C° 0 mm 2 mps 754 mmHg 91%

    29 February, Saturday

    Time Temperature Precipitation Wind Pressure Humidity
    00:00 +27°C° 1 mm 2 mps 754 mmHg 92%
    01:00 +27°C° 1 mm 2 mps 754 mmHg 93%
    02:00 +27°C° 1 mm 2 mps 753 mmHg 95%
    03:00 +27°C° 0.7 mm 2 mps 753 mmHg 95%
    04:00 +26°C° 0.7 mm 2 mps 753 mmHg 95%
    05:00 +26°C° 0.7 mm 2 mps 753 mmHg 95%
    06:00 +27°C° 0.3 mm 1 mps 753 mmHg 93%
    07:00 +27°C° 0.3 mm 1 mps 754 mmHg 91%
    08:00 +28°C° 0.3 mm 1 mps 754 mmHg 89%
    09:00 +30°C° 0 mm 1 mps 754 mmHg 79%
    10:00 +32°C° 0 mm 1 mps 754 mmHg 70%
    11:00 +34°C° 0 mm 1 mps 754 mmHg 61%
    12:00 +34°C° 0.2 mm 2 mps 753 mmHg 65%
    13:00 +34°C° 0.2 mm 3 mps 752 mmHg 70%
    14:00 +33°C° 0.2 mm 4 mps 752 mmHg 74%
    15:00 +32°C° 0.3 mm 4 mps 751 mmHg 77%
    16:00 +32°C° 0.3 mm 4 mps 751 mmHg 80%
    17:00 +30°C° 0.3 mm 4 mps 751 mmHg 82%
    18:00 +29°C° 0.1 mm 3 mps 752 mmHg 85%
    19:00 +28°C° 0.1 mm 3 mps 753 mmHg 88%
    20:00 +28°C° 0.1 mm 3 mps 753 mmHg 91%
    21:00 +28°C° 0 mm 3 mps 753 mmHg 92%
    22:00 +28°C° 0 mm 3 mps 754 mmHg 92%
    23:00 +28°C° 0 mm 3 mps 754 mmHg 93%
    Show more